Regional Weather Roundup
Issued by NWS Upton, NY

Current Version | Previous Version | Text Only | Print | Product List | Glossary Off
Versions: 1 2 3 4 5 6 7 8 9 10 11 12 13 14 15 16 17 18 19 20 21 22 23 24 25 26 27 28 29 30 31 32 33 34 35 36 37 38 39 40 41 42 43 44 45 46 47 48 49 50
000 ASUS41 KOKX 241805 RWROKX REGIONAL WEATHER ROUNDUP NATIONAL WEATHER SERVICE NEW YORK NY 100 PM EST SAT JAN 24 2015 NOTE: "FAIR" INDICATES FEW OR NO CLOUDS BELOW 12,000 FEET WITH NO SIGNIFICANT WEATHER AND/OR OBSTRUCTIONS TO VISIBILITY. NYZ071-072-176-178-NJZ106-104-241900- NEW YORK CITY METRO AREA CITY SKY/WX TMP DP RH WIND PRES REMARKS CENTRAL PARK CLOUDY 35 32 88 MISG 29.34F FOG LAGUARDIA APRT DRIZZLE 35 33 92 N14 29.34F FOG WCI 26 KENNEDY INTL DRIZZLE 36 33 89 N14 29.34F FOG WCI 27 NEWARK/LIBERTY CLOUDY 36 34 92 N13 29.34F FOG WCI 27 BRNX BOT. GARD N/A 34 34 100 N9 29.34F WCI 26 TETERBORO LGT RAIN 36 34 93 N6 29.32F FOG WCI 31 $$ NYZ177-179-078>081-241900- LONG ISLAND NEW YORK CITY SKY/WX TMP DP RH WIND PRES REMARKS FARMINGDALE CLOUDY 36 33 89 N13 29.31F FOG WCI 27 ISLIP DRIZZLE 35 33 92 N14 29.28F FOG WCI 26 SHIRLEY LGT SNOW 35 33 92 N15G23 29.30F FOG WCI 25 WESTHAMPTON LGT SNOW 36 33 89 N16G24 29.28F VSB 1 WCI 26 MONTAUK POINT N/A 37 35 92 N15G25 29.28F WCI 28 $$ NYZ052-065-067-241900- HUDSON VALLEY CITY SKY/WX TMP DP RH WIND PRES REMARKS WHITE PLAINS RAIN 34 32 92 N13 29.32F FOG WCI 25 NEWBURGH LGT SNOW 32 32 100 VRB6 29.39F WCI 26 MONTGOMERY CLOUDY 34 31 88 N7 29.37F FOG WCI 28 POUGHKEEPSIE LGT SNOW 33 30 88 N7 29.39F FOG WCI 27 ALBANY LGT SNOW 31 26 82 N7 29.46F WCI 24 $$ NJZ001-105-106-008-010-013-015-019>022-104-241900- NEW JERSEY CITY SKY/WX TMP DP RH WIND PRES REMARKS NEWARK/LIBERTY CLOUDY 36 34 92 N13 29.34F FOG WCI 27 TETERBORO LGT RAIN 36 34 93 N6 29.32F FOG WCI 31 CALDWELL CLOUDY 35 31 85 N8 29.34F FOG WCI 29 MORRISTOWN CLOUDY 37 36 93 N5 29.37F FOG WCI 34 SOMERVILLE CLOUDY 39 34 82 N8 29.33F WCI 33 SUSSEX CLOUDY 34 30 85 E3 29.36F FOG ANDOVER N/A 33 30 88 NE6 29.36F WCI 28 TRENTON CLOUDY 37 32 82 N9 29.35F WCI 30 MILLVILLE CLOUDY 38 35 89 NW9 29.37F WCI 31 ATLANTIC CITY CLOUDY 37 35 92 N14 29.32F WCI 28 WRIGHTSTOWN CLOUDY 34 34 99 N10 29.33S WCI 26 TOMS RIVER CLOUDY 36 34 93 N10 29.34F WCI 28 BELMAR CLOUDY 36 28 75 N12 29.32F WCI 27 $$ PAZ047>061-062-071-241900- EASTERN PENNSYLVANIA CITY SKY/WX TMP DP RH WIND PRES REMARKS PHILADELPHIA CLOUDY 37 34 89 N10 29.38F WCI 30 ALLENTOWN CLOUDY 37 32 82 NW5 29.39F HAZE WCI 33 SCRANTON CLOUDY 33 31 92 CALM 29.40F FOG $$ CTZ002-004>006-009-010-012-RIZ004-006-007-MAZ004-011-015-241900- SOUTHERN NEW ENGLAND IN CT CITY SKY/WX TMP DP RH WIND PRES REMARKS BRADLEY INTL LGT RAIN 33 30 88 N14 29.37F VSB 1 WCI 23 HARTFORD MIX PCPN 33 30 88 N12 29.38F VSB 3/4 WCI 24 DANBURY LGT RAIN 34 30 85 N5 29.35F VSB 1 WCI 30 WTRBRY/OXFORD N/A 32 27 80 N13 29.34F FOG WCI 22 BRIDGEPORT CLOUDY 36 34 92 N10 29.33F WCI 28 MERIDEN LGT RAIN 34 31 88 N8 29.35F FOG WCI 27 NEW HAVEN CLOUDY 34 32 92 N14 29.31F FOG WCI 25 CHESTER MIX PCPN 34 34 100 N9 29.31F VSB 1 WCI 26 GROTON MIX PCPN 34 34 100 N14 29.31F FOG WCI 25 WILLIMANTIC LGT RAIN 35 32 88 N9 29.35F FOG WCI 28 IN RI CITY SKY/WX TMP DP RH WIND PRES REMARKS PROVIDENCE LGT RAIN 34 32 92 N17 29.32F VSB 1 WCI 23 BLOCK ISLAND CLOUDY 36 30 80 NE20G31 29.24F WCI 25 WESTERLY LGT RAIN 35 34 96 N15G23 29.29F FOG WCI 25 IN MA CITY SKY/WX TMP DP RH WIND PRES REMARKS BOSTON LGT RAIN 33 32 96 N12 29.39F FOG WCI 24 WORCESTER FRZ RAIN 30 29 96 NE10 29.35F FOG WCI 21 WESTFIELD LGT SNOW 32 28 85 N15 29.39F VSB 1 WCI 22 PROVINCETOWN CLOUDY 37 36 93 NE17G23 29.36F WCI 28 NANTUCKET LGT RAIN 43 41 93 NE15G26 29.20F $$ ANZ330-335-338-340-345-350-353-355-241900- COASTAL MARINE OBSERVATIONS STATION/POSITION TIME SKY/WX TEMP WIND PRES VSBY WAVE AIR SEA DIR/SP/G HT/PER (UTC) (F) (DEG/KT/KT) (MB) (MI) (FT/S) NY HARB ENTRANCE 1800 37 42 350/ 19/ 21 992.0 4/ 6 4S FIRE IS 1800 39 N/A 4/ 5 20S FIRE ISLAND 1700 41 992.4 6/ 6 23SW MTP 1800 N/A 7/ 6 HUDSON CANYON NOT AVBL EXECUTION ROCKS 1800 36 35 340/ 12/ 14 N/A WESTERN LI SOUND 1800 36 350/ 12/ 14 N/A 1/ 3 CENTRAL LI SOUND 1700 35 37 10/ 16/ 19 N/A 2/ 3 EASTERN LI SOUND NOT AVBL ROBBINS REEF 1800 34 350/ 11/ 14 993.1 $$ >>>>>>>>>>>>>>>>>>>>>>>>>>>> KEY <<<<<<<<<<<<<<<<<<<<<<<<<<< > < > SKY/WX - SKY CONDITION/PRESENT WEATHER < > TMP - TEMPERATURE IN FAHRENHEIT < > DP - DEWPOINT IN FAHRENHEIT < > RH - RELATIVE HUMIDITY IN PERCENT < > WIND - DIRECTION AND SPEED IN MPH < > PRES - MEAN SEA LEVEL PRESSURE IN INCHES OF HG < > WCI - WIND CHILL INDEX < > VSB - VISIBILITY IN MILES < > HX - HEAT INDEX < > TC - TEMPERATURE IN CELSIUS < > VRB - VARIABLE WIND DIRECTION < > < >>>>>>>>>>>>>>>>>>>>>>>>>>>> KEY <<<<<<<<<<<<<<<<<<<<<<<<<<<

USA.gov is the U.S. government's official web portal to all federal, state and local government web resources and services.